Find Kuiper-00021

NORAD ID: 63736 Int'l Des: 2025-088 Owner: KUIP Country: US Constellation: amazon-leo operational
LEOCIRCULAR

現在のビュー

3D地球を読み込み中...

About Kuiper-00021

Kuiper-00021 (NORAD 63736) is a amazon-leo constellation satellite launched Apr 28, 2025 by KUIP of US. It operates in LEO, CIRCULAR orbit with a mass of 490.00 kg.

Kuiper-00021について

説明を読み込み中...

次回通過

Passes for default location (London). Set your location on the main map for personalized predictions.

高度履歴

Loading altitude history...

軌道要素

1 63736U 25088N 26170.92624685 .00001180 00000-0 18379-3 0 9997
2 63736 51.9026 10.9697 0000697 109.1617 250.9421 14.79929729 62638
Epoch: Jun 19, 2026 • Age: 52 hours

現在のステータス

高度 633.1 km
速度 7.54 km/s
衛星直下点 -12.78°S, 50.67°E
打ち上げ日 Apr 28, 2025
運用期間 1.1 years
タイプ internet

技術仕様

分類 Payload
質量 490.00 kg
乾燥質量 490.00 kg
総質量 490.00 kg
長さ 1.80 m
直径 0.70 m
スパン 5.00 m
形状 Box + 2 pan
製造者 KUIP
バスタイプ Kuiper
フェーズステータス In Orbit
所有者/国 KUIP/US

Most Searched